[Iaude] MPEC L57: 2024 LA1 [a=2.13,e=0.49,i=1.2,H=25.8]

mpec at cfa.harvard.edu mpec at cfa.harvard.edu
Wed Jun 5 15:56:59 EDT 2024


M.P.E.C. 2024-L57                                  Issued 2024 June 5, 19:55 UT

     The Minor Planet Electronic Circulars contain information on unusual
         minor planets, routine data on comets and natural satellites,
         and occasional editorial announcements.  They are published
    on behalf of Division F of the International Astronomical Union by the
          Minor Planet Center, Smithsonian Astrophysical Observatory,
                          Cambridge, MA 02138, U.S.A.
			  
             Prepared using the Tamkin Foundation Computer Network

                              MPC at CFA.HARVARD.EDU
            URL https://www.minorplanetcenter.net/    ISSN 1523-6714

                                    2024 LA1                                    


Observations:
     K24L01A  C2024 05 30.33615514 51 38.514-25 05 56.31         21.23GVEL057F51
     K24L01A  C2024 05 30.34685414 51 43.845-25 06 32.86         20.86GVEL057F51
     K24L01A  C2024 05 30.35757114 51 49.275-25 07 09.85         21.36GVEL057F51
     K24L01A  C2024 05 30.36826614 51 54.704-25 07 46.88         20.18GVEL057F51
     K24L01A  C2024 06 03.34318915 30 14.148-28 35 28.30         21.72GVEL057F52
     K24L01A* C2024 06 03.35492515 30 20.695-28 36 02.23         21.27wXEL057F52
     K24L01A  C2024 06 03.36669715 30 27.154-28 36 35.24         21.54GVEL057F52
     K24L01A  C2024 06 03.37847615 30 33.657-28 37 08.06         21.07wXEL057F52
     K24L01A 7C2024 06 03.93443615 36 08.881-29 02 42.01               VEL057Z84
     K24L01A 7C2024 06 03.94428515 36 14.403-29 03 09.37               VEL057Z84
     K24L01A 7C2024 06 03.95390515 36 19.831-29 03 35.26               VEL057Z84
     K24L01A KC2024 06 04.53182515 42 07.207-29 26 33.65         20.7 GVEL057474
     K24L01A KC2024 06 04.53679415 42 10.020-29 26 44.52         21.9 GVEL057474
     K24L01A KC2024 06 04.54064615 42 12.240-29 26 54.74         21.2 GVEL057474
     K24L01A  C2024 06 05.18829015 48 50.219-29 55 37.48         21.0 GVEL057H01
     K24L01A KC2024 06 05.19179315 48 52.202-29 55 46.13         21.5 GVEL057H01
     K24L01A  C2024 06 05.19856815 48 56.027-29 56 02.97         21.8 GVEL057H01
     K24L01A KC2024 06 05.20717315 49 00.926-29 56 24.50         21.3 GVEL057H01

Observer details:
474 Mount John Observatory, Lake Tekapo.  Observers A. C. Gilmore, P. M.
    Kilmartin.  Measurer P. M. Kilmartin.  1.0-m f/7.7 Reflector + CCD.
F51 Pan-STARRS 1, Haleakala.  Observers J. Herman, T. Lowe, P. Minguez, A.
    Schultz, I. Smith.  Measurers K. Chambers, T. de Boer, J. Fairlamb, H.
    Gao, M. Huber, C.-C. Lin, E. Magnier, Y. Ramanjooloo, R. Wainscoat, R.
    Weryk.  1.8-m Ritchey-Chretien + CCD.
F52 Pan-STARRS 2, Haleakala.  Observers J. Herman, T. Lowe, P. Minguez, A.
    Schultz, I. Smith.  Measurers K. Chambers, T. de Boer, J. Fairlamb, H.
    Gao, M. Huber, C.-C. Lin, E. Magnier, Y. Ramanjooloo, R. Wainscoat, R.
    Weryk.  1.8-m Ritchey-Chretien + CCD.
H01 Magdalena Ridge Observatory, Socorro.  Observers W. H. Ryan, E. V. Ryan.
    Measurer W. H. Ryan.  2.4-m f/8.9 Ritchey-Chretien + CCD.
Z84 Calar Alto-Schmidt.  Observers F. Ocana, R. Kresken, M. Micheli, L.
    Conversi.  Measurers F. Ocana, M. Micheli.  0.8-m f/3 Schmidt + CCD.

Orbital elements:
2024 LA1                                                 Earth MOID = 0.0757 AU
Epoch 2024 Mar. 31.0 TT = JDT 2460400.5                 Veres                   
M 341.91708              (2000.0)            P               Q                  
n   0.31773438     Peri.  207.10403     -0.43956581     +0.89812414             
a   2.1269629      Node    36.82355     -0.82028251     -0.39574510             
e   0.4884079      Incl.    1.18997     -0.36594877     -0.19172595             
P   3.10           H   25.81          G   0.15           U   8                  
Residuals in seconds of arc
240530 F51  0.3+  0.2-    240603 F52  0.2+  0.1-    240604 474  0.3-  1.0+
240530 F51  0.4-  0.2+    240603 F52  0.3+  0.1+    240604 474  0.0   0.3+
240530 F51  0.1+  0.0     240603 Z84  0.3+  0.5+    240605 H01  0.1+  0.1-
240530 F51  0.8+  0.5-    240603 Z84  0.2+  0.3-    240605 H01  0.0   0.1+
240603 F52  0.3-  0.1+    240603 Z84  0.4+  0.4-    240605 H01  0.2-  0.1+
240603 F52  0.6+  0.4-    240604 474  0.0   0.3-    240605 H01  0.1+  0.1-

Ephemeris:
2024 LA1                 a,e,i = 2.13, 0.49, 1                   q = 1.0881
Date    TT    R. A. (2000) Decl.     Delta      r    Elong.  Phase     V
2024 05 06    12 43 27.7 -05 46 09   0.1238  1.1143   146.6    29.9    22.8
...
2024 05 21    13 40 40.2 -15 57 59   0.09039 1.0902   148.6    28.9    22.0
...
2024 05 29    14 39 38.2 -23 47 16   0.08146 1.0884   155.9    22.4    21.6
...
2024 06 04    15 36 47.1 -29 03 56   0.08105 1.0921   162.5    16.2    21.4
2024 06 05    15 46 52.7 -29 46 27   0.08157 1.0931   163.6    15.2    21.4
2024 06 06    15 57 00.4 -30 25 12   0.08226 1.0943   164.5    14.3    21.4
...
2024 06 12    16 55 40.1 -32 55 09   0.08983 1.1037   168.7    10.4    21.5
...
2024 06 20    17 58 30.8 -33 17 07   0.1079  1.1225   170.1     8.9    21.8
...
2024 07 05    19 03 37.0 -30 44 11   0.1599  1.1752   171.9     7.0    22.7

M. P. C. Staff               (C) Copyright 2024 MPC           M.P.E.C. 2024-L57





More information about the Iaude mailing list